Probability
0 0 0 0 0 0 0 0 0 0 0 0 0 0 0 0 0 0 0 0 0 0 0 0 0 0 1 4 6 8 9 7 7 20 44 65 70 69
0 0 0 0 0 0 0 0 0 0 0 0 0 0 0 0 0 0 0 0 0 0 0 0 0 0 0 2 4 5 4 3 3 14 35 51 55 54
0 0 0 0 0 0 0 0 0 0 0 0 0 0 0 0 0 0 0 0 0 0 0 0 0 0 0 0 1 1 1 0 1 8 21 30 34 35
0 0 0 0 0 0 0 0 0 0 0 0 0 0 0 0 0 0 0 0 0 0 0 0 0 0 0 0 0 0 0 0 1 4 8 11 16 21
0 0 0 0 0 0 0 0 0 0 0 0 0 0 0 0 0 0 0 0 0 0 0 0 0 0 0 0 0 0 0 0 0 1 1 1 4 8
0 0 0 0 0 0 0 0 0 0 0 0 0 0 0 0 0 0 0 0 0 0 0 0 0 0 0 0 0 0 0 0 0 0 0 0 0 1
0 0 0 0 0 0 0 0 0 0 0 0 0 0 0 0 0 0 0 0 0 0 0 0 1 0 0 0 0 0 0 0 0 0 0 0 0 0
0 0 0 0 0 0 0 0 0 0 0 0 0 0 0 0 0 0 0 0 0 0 0 1 2 1 0 0 0 0 0 0 0 0 0 0 0 0
0 0 0 0 0 0 0 0 0 0 0 0 0 0 0 0 0 0 0 0 0 0 0 0 1 0 0 0 0 0 0 0 0 0 0 0 0 0
0 0 0 0 0 0 0 0 0 0 0 0 0 0 0 0 0 0 0 0 0 0 0 0 0 0 0 0 0 0 0 0 0 0 0 0 0 0
0 0 0 0 0 0 0 0 0 0 0 0 0 0 0 0 0 0 0 0 0 0 0 0 0 0 0 0 0 0 0 0 0 0 0 0 0 0
0 0 0 0 0 0 0 0 0 0 0 0 0 0 0 0 0 0 0 0 0 0 0 0 0 0 0 0 0 0 0 0 0 0 0 0 0 0
0 0 0 0 0 0 0 0 0 0 0 0 0 0 0 0 0 0 0 0 0 0 0 0 0 0 0 0 0 0 0 0 0 0 0 0 0 0
0 0 0 0 0 0 0 0 0 0 0 0 0 0 0 0 0 0 0 0 0 0 0 0 0 0 0 0 0 0 0 0 0 0 0 0 0 0
0 0 0 0 0 0 0 0 0 0 0 0 0 0 0 0 0 0 0 0 0 0 0 0 0 0 0 0 0 0 0 0 0 0 0 0 0 0
0 0 0 0 0 0 0 0 0 0 0 0 0 0 0 0 0 0 0 0 0 0 0 0 0 0 0 0 0 0 0 0 0 0 0 0 0 0
0 0 0 0 0 0 0 0 0 0 0 0 0 0 0 0 0 0 0 0 0 0 0 0 0 0 0 0 0 0 0 0 0 0 0 0 0 0
0 0 0 0 0 0 0 0 0 0 0 0 0 0 0 0 0 0 0 0 0 0 0 0 0 0 0 0 0 0 0 0 0 0 0 0 0 0
0 0 0 0 0 0 0 0 0 0 0 0 0 0 0 0 0 0 0 0 0 0 0 0 0 0 0 0 0 0 0 0 0 0 0 0 0 0
0 0 0 0 0 0 0 0 0 0 0 0 0 0 0 0 0 0 0 0 0 0 0 0 0 0 0 0 0 0 0 0 0 0 0 0 0 0
0 0 0 0 0 0 0 0 0 0 0 0 0 0 0 0 0 0 0 0 0 0 0 0 0 0 0 0 0 0 0 0 0 0 0 0 0 0
0 0 0 0 0 0 0 0 0 0 0 0 0 0 0 0 0 0 0 0 0 0 0 0 0 0 0 0 0 0 0 0 0 0 0 0 0 0
0 0 0 0 0 0 0 0 0 0 0 0 0 0 0 0 0 0 0 0 0 0 0 0 0 0 0 0 0 0 0 0 0 0 0 0 0 0
Wind_Speed
13 13 11 10 10 10 10 10 11 12 12 12 8 8 8 9 12 11 11 15 17 16 15 13 12 10 9 8 8 11 15 19 20 20 20 21 21 21
11 12 12 10 9 9 9 9 10 11 12 10 10 11 11 9 12 12 11 16 16 14 14 13 11 10 9 8 8 10 12 16 19 20 21 21 19 18
11 11 11 11 9 8 9 9 9 9 11 11 10 10 12 11 11 10 10 9 8 12 13 12 11 10 8 7 9 10 12 16 19 21 21 21 19 18
12 11 10 9 10 8 8 8 8 8 9 12 10 10 11 11 11 11 9 8 7 11 12 11 11 9 8 7 7 9 11 15 17 19 19 20 20 18
12 12 11 10 10 8 8 7 7 7 7 9 9 8 8 8 10 10 10 8 8 8 9 9 9 8 7 7 6 6 9 13 16 18 19 19 20 20
12 12 11 11 10 10 8 7 7 7 7 7 7 7 7 9 8 8 9 8 8 6 7 7 7 7 7 6 5 5 7 10 15 17 19 20 19 19
12 12 12 14 16 12 9 10 9 7 7 7 6 7 7 8 8 8 9 9 8 4 5 5 4 4 4 4 4 4 6 8 11 15 18 19 19 19
12 12 12 13 15 16 17 15 14 11 10 8 7 8 9 9 9 9 8 8 6 5 6 6 4 3 2 1 1 3 4 7 9 12 15 17 19 19
11 11 10 12 14 11 13 14 12 14 13 9 9 9 10 10 11 10 9 8 8 7 7 5 3 2 1 0 0 2 4 6 7 9 12 14 17 19
10 11 11 12 13 14 12 11 10 10 11 8 8 9 9 10 9 9 10 10 9 6 4 4 4 3 1 1 1 1 4 5 7 8 10 13 15 17
8 9 11 11 17 18 13 11 11 10 11 13 12 11 12 12 10 7 8 7 5 3 3 3 4 3 2 1 1 1 3 5 6 8 9 11 13 15
7 7 11 14 17 18 12 11 12 12 11 11 10 10 9 9 10 6 6 6 5 4 4 5 4 3 1 1 1 0 2 3 6 7 9 11 13 10
6 6 7 14 16 16 14 10 14 14 10 10 9 8 7 6 7 6 5 5 6 5 4 6 4 4 2 1 1 2 1 2 3 3 6 10 12 10
5 6 7 13 14 14 11 14 16 13 8 8 8 8 8 8 8 8 8 7 7 9 9 7 4 4 3 1 1 2 2 2 2 3 3 7 8 9
5 7 10 12 12 9 11 14 12 8 8 8 9 9 9 9 9 8 8 7 6 7 7 7 6 5 4 2 1 1 2 3 3 4 4 4 4 6
5 6 9 9 8 8 9 8 7 7 8 8 8 9 9 9 8 8 8 7 5 4 4 5 4 4 3 3 1 1 2 2 3 6 7 6 6 6
5 4 5 5 5 5 5 6 6 7 7 8 8 9 9 9 8 8 7 6 5 5 5 4 2 1 3 4 1 2 4 4 4 6 8 8 7 7
5 5 5 5 6 6 6 6 6 6 7 7 8 8 9 9 9 8 7 6 5 5 4 4 3 1 1 5 10 3 4 5 4 5 8 10 9 7
5 5 5 5 5 5 5 5 5 6 6 7 7 8 8 8 8 8 8 7 6 5 5 4 3 2 2 2 6 12 4 5 6 7 7 9 10 8
6 6 5 5 5 5 5 5 5 5 5 6 7 7 8 8 8 8 8 9 7 6 5 5 5 4 3 3 3 6 12 5 7 10 10 11 12 16
7 7 6 5 5 5 4 4 4 4 5 5 6 7 7 7 8 8 8 10 8 6 6 6 5 6 3 4 6 6 9 15 12 8 11 13 12 10
8 7 6 6 5 4 4 3 3 3 4 4 5 6 6 7 7 8 8 7 6 6 6 5 5 4 4 7 9 9 10 11 17 22 19 10 7 9
9 8 6 6 5 4 3 3 4 3 3 3 4 5 6 6 6 7 7 7 6 6 5 5 5 6 7 8 9 10 14 12 11 13 14 20 25 28
Wind_Direction
288 284 279 275 274 272 273 275 282 292 299 304 306 310 314 311 312 309 304 307 310 310 311 312 306 296 284 269 243 217 205 196 189 187 191 196 202 206
293 286 283 281 276 274 272 271 271 276 285 293 301 305 310 309 309 305 300 304 300 303 306 310 307 301 289 269 241 214 200 189 184 185 192 196 199 201
309 301 294 290 284 278 275 274 274 276 281 291 295 303 310 314 313 308 303 300 295 298 300 303 305 301 290 276 242 213 197 188 182 184 191 195 198 200
327 321 313 305 295 285 282 280 280 279 282 291 300 309 314 318 317 313 309 302 297 297 297 294 293 288 287 281 248 214 195 188 180 182 188 194 198 198
337 335 330 326 321 309 300 299 293 290 287 291 299 310 316 326 322 319 316 313 306 300 296 286 285 282 279 281 248 215 197 189 183 183 187 192 195 194
344 342 344 342 339 339 336 332 325 315 310 305 308 317 324 331 330 332 328 325 315 309 306 294 286 279 267 270 249 216 199 193 189 186 186 185 186 187
346 347 350 355 358 358 359 357 350 343 336 330 327 328 336 340 339 333 326 321 309 333 320 296 283 257 238 247 246 212 193 191 190 187 185 182 177 177
349 348 349 356 358 1 2 3 3 357 350 341 337 336 336 336 332 329 328 329 318 348 334 303 283 264 239 230 237 199 193 187 186 186 184 181 178 177
347 347 349 350 355 353 353 355 357 357 355 343 334 333 329 332 327 324 324 317 299 312 318 299 298 275 251 252 49 200 193 184 182 181 182 182 179 178
346 345 346 347 350 353 349 348 348 351 346 341 330 324 323 324 323 315 308 303 289 275 281 292 311 304 323 314 2 218 193 184 180 178 180 180 180 179
340 341 342 344 348 353 348 344 343 345 342 338 331 326 326 329 335 327 323 322 312 320 346 309 310 312 317 322 332 198 179 178 179 178 177 176 176 174
330 333 338 346 348 351 348 344 343 342 337 334 332 332 332 332 339 334 321 316 311 307 349 332 313 315 321 348 344 5 156 154 166 174 176 173 168 170
321 328 332 343 346 348 348 345 343 339 332 331 331 335 338 337 336 331 317 299 292 287 329 340 319 318 315 335 8 10 53 119 139 152 163 166 170 168
308 317 327 337 339 342 346 346 345 341 335 335 338 341 340 338 333 325 314 294 271 270 286 301 294 311 326 330 46 32 36 51 96 116 128 140 144 141
301 306 318 330 332 332 341 345 345 343 341 341 341 339 335 330 326 325 321 308 283 265 268 268 265 278 293 300 346 53 62 36 63 96 95 100 114 128
298 301 308 314 317 322 331 339 342 344 344 339 336 334 333 334 337 337 333 331 323 318 298 289 280 274 279 288 285 97 78 85 78 90 88 76 67 81
312 299 305 316 322 329 332 337 340 343 344 342 339 338 339 340 341 341 337 337 341 341 342 344 344 33 50 21 51 80 102 98 99 104 100 89 67 69
326 310 316 320 323 325 329 333 338 343 343 341 341 342 341 341 342 343 344 346 349 347 349 347 342 340 65 46 23 48 86 94 91 97 112 107 89 70
328 317 317 318 319 319 321 324 330 337 337 338 342 343 342 343 345 347 350 351 353 351 354 353 355 5 96 75 17 15 56 101 102 96 97 103 102 95
333 322 314 313 312 314 314 317 321 328 336 337 341 344 345 345 349 351 354 355 353 356 4 11 14 22 53 85 67 27 29 65 109 109 105 98 94 95
331 324 316 311 307 306 307 306 310 319 332 332 339 344 346 348 351 352 354 358 3 7 13 15 16 30 63 89 90 68 51 52 66 99 118 117 111 105
327 323 317 311 307 300 297 293 296 306 322 327 337 342 346 349 352 354 356 359 6 11 18 25 23 35 63 96 100 94 84 73 64 62 57 66 118 131
323 321 316 310 305 298 289 279 279 293 311 324 333 341 346 351 354 357 359 4 10 18 28 43 56 66 78 92 99 98 92 86 82 76 68 77 90 99